Weather History for Nome, AK

Change the Weather History Date:

Wednesday, January 30, 2013

  Actual Average Record
Temperature  
Mean Temperature 13 °F -  
Max Temperature 19 °F 13 °F 42 °F (2007)
Min Temperature 6 °F -3 °F -46 °F (1993)
Degree Days  
Heating Degree Days 52 60  
Month to date heating degree days 1534 1793  
Since 1 July heating degree days 7660 7611  
Cooling Degree Days 0    
Month to date cooling degree days 0  
Year to date cooling degree days 0  
Moisture  
Dew Point 8 °F    
Average Humidity 0    
Maximum Humidity 0    
Minimum Humidity 0    
Precipitation  
Precipitation 0.19 in 0.03 in 0.24 in (1922)
Month to date precipitation 1.11 0.91  
Year to date precipitation 1.11 0.91  
Snow  
Snow 3.70 in 0.40 in 3.70 in (2013)
Month to date snowfall 15.6 12.3  
Since 1 July snowfall 32.9 44.1  
Snow Depth 21.00 in    
Sea Level Pressure  
Sea Level Pressure 29.54 in    
Wind  
Wind Speed 13 mph (NE)    
Max Wind Speed 23 mph    
Max Gust Speed 28 mph    
Visibility 4 miles    
Events Snow    
T = Trace of Precipitation, MM = Missing Value Source: NWS Daily Summary

Daily Weather History Graph

Daily Weather History Graph

Search for Another Location

Airport:

Trip Planner

Search our weather history database for the weather conditions in past years. The results will help you decide how hot, cold, wet, or windy it might be!

Date:

Astronomy

Jan. 30, 2013 Rise Set
Actual Time 10:49 AM AKST 5:41 PM AKST
Civil Twilight 9:50 AM AKST 6:40 PM AKST
Nautical Twilight 8:50 AM AKST 7:41 PM AKST
Astronomical Twilight 7:53 AM AKST 8:37 PM AKST
Moon 11:53 PM AKST (1/30) 10:37 AM AKST (1/30)
Length of Visible Light 8h 50m
Length of Day
6h 52m
Waning Gibbous, 86% of the Moon is Illuminated
Jan 30
Waning Gibbous
Feb 3
Last Quarter
Feb 9
New
Feb 17
First Quarter
Feb 25
Full

Hourly Weather History & Observations

Time (AKST) Temp. Windchill Dew Point Humidity Pressure Visibility Wind Dir Wind Speed Gust Speed Precip Events Conditions
12:46 AM 6.8 °F -13.4 °F -2.2 °F 67% 29.57 in 2.5 mi NE 20.7 mph - 0.00 in Snow Light Snow
12:53 AM 6.1 °F -13.8 °F -2.9 °F 67% 29.57 in 1.8 mi NE 19.6 mph - 0.00 in Snow Light Snow
1:09 AM 6.8 °F -12.9 °F -2.2 °F 67% 29.57 in 2.5 mi NE 19.6 mph - 0.00 in Snow Light Snow
1:33 AM 6.8 °F -10.7 °F -2.2 °F 67% 29.58 in 1.2 mi NE 15.0 mph - 0.00 in Snow Light Snow
1:43 AM 6.8 °F -10.0 °F -2.2 °F 67% 29.58 in 1.0 mi NE 13.8 mph - 0.00 in Snow Light Snow
1:53 AM 7.0 °F -8.3 °F -2.9 °F 64% 29.60 in 1.2 mi NE 11.5 mph - 0.01 in Snow Light Snow
2:00 AM 6.8 °F -9.3 °F 3.2 °F 85% 29.58 in 1.5 mi NE 12.7 mph - 0.01 in Snow Light Snow
2:10 AM 6.8 °F -9.3 °F 3.2 °F 85% 29.58 in 2.5 mi NE 12.7 mph - 0.01 in Snow Light Snow
2:39 AM 6.8 °F -10.0 °F 3.2 °F 85% 29.58 in 1.5 mi NE 13.8 mph - 0.02 in Snow Light Snow
2:53 AM 7.0 °F -11.0 °F 3.0 °F 84% 29.59 in 1.5 mi NE 16.1 mph - 0.02 in Snow Light Snow
3:53 AM 8.1 °F -10.2 °F 3.0 °F 80% 29.57 in 1.5 mi NE 17.3 mph - 0.01 in Snow Light Snow
4:53 AM 7.0 °F -11.6 °F 3.0 °F 84% 29.57 in 1.5 mi NE 17.3 mph - 0.01 in Snow Light Snow
5:12 AM 8.6 °F -10.0 °F 5.0 °F 85% 29.56 in 1.5 mi NNE 18.4 mph - 0.00 in Snow Light Snow
5:53 AM 8.1 °F -10.2 °F 4.1 °F 84% 29.56 in 2.0 mi NNE 17.3 mph - 0.00 in Snow Light Snow
6:26 AM 8.6 °F -10.0 °F 5.0 °F 85% 29.55 in 6.0 mi NE 18.4 mph - 0.00 in Snow Light Snow
6:53 AM 9.0 °F -6.6 °F 4.1 °F 81% 29.55 in 6.0 mi NE 12.7 mph - 0.00 in Snow Light Snow
7:53 AM 10.9 °F -5.9 °F 5.0 °F 77% 29.55 in 6.0 mi NNE 16.1 mph - 0.01 in Snow Light Snow
8:53 AM 12.0 °F -4.0 °F 6.1 °F 77% 29.55 in 9.0 mi NNE 15.0 mph - 0.00 in Snow Light Snow
9:53 AM 14.0 °F -0.8 °F 6.1 °F 71% 29.53 in 9.0 mi NE 13.8 mph - 0.00 in Snow Light Snow
10:04 AM 14.0 °F -0.8 °F - N/A% 29.52 in 9.0 mi NE 13.8 mph - 0.00 in Snow Light Snow
10:28 AM 15.8 °F 1.4 °F - N/A% 29.52 in 9.0 mi NE 13.8 mph - 0.00 in   Overcast
10:53 AM 16.0 °F 0.6 °F - N/A% 29.53 in 10.0 mi NNE 16.1 mph - 0.00 in   Overcast
11:41 AM 15.8 °F 5.1 °F - N/A% 29.53 in 10.0 mi NE 8.1 mph - N/A   Overcast
11:53 AM 15.1 °F 4.2 °F 10.0 °F 80% 29.54 in 8.0 mi ENE 8.1 mph - 0.00 in Snow Light Snow
12:04 PM 15.8 °F 4.2 °F - N/A% 29.54 in 8.0 mi NNE 9.2 mph - 0.00 in Snow Light Snow
12:28 PM 17.6 °F 8.2 °F - N/A% 29.53 in 10.0 mi NE 6.9 mph - 0.01 in   Overcast
12:53 PM 16.0 °F 4.4 °F 10.4 °F 79% 29.52 in 6.0 mi NE 9.2 mph - 0.01 in Snow Light Snow
1:02 PM 15.8 °F 3.4 °F - N/A% 29.52 in 2.5 mi NE 10.4 mph - 0.00 in Snow Light Snow
1:10 PM 15.8 °F 5.1 °F - N/A% 29.52 in 0.8 mi NNE 8.1 mph - 0.01 in Snow Light Snow
1:15 PM 15.8 °F 3.4 °F - N/A% 29.52 in 1.0 mi NE 10.4 mph - 0.01 in Snow Light Snow
1:25 PM 15.8 °F 5.1 °F 10.4 °F 79% 29.51 in 0.8 mi NE 8.1 mph - 0.01 in Snow Light Snow
1:33 PM 15.8 °F 4.2 °F 10.4 °F 79% 29.51 in 0.5 mi NE 9.2 mph - 0.02 in Snow Snow
1:41 PM 15.8 °F 5.1 °F 10.4 °F 79% 29.52 in 1.0 mi NE 8.1 mph - 0.02 in Snow Light Snow
1:53 PM 16.0 °F 3.6 °F 10.9 °F 81% 29.52 in 0.5 mi NE 10.4 mph - 0.03 in Snow Snow
2:01 PM 15.8 °F 2.7 °F - N/A% 29.52 in 1.0 mi NE 11.5 mph - 0.01 in Snow Light Snow
2:10 PM 15.8 °F 3.4 °F 12.2 °F 86% 29.52 in 2.0 mi NE 10.4 mph - 0.02 in Snow Light Snow
2:19 PM 15.8 °F 3.4 °F 12.2 °F 86% 29.52 in 3.0 mi NE 10.4 mph - 0.02 in Snow Light Snow
2:33 PM 15.8 °F 2.1 °F 12.2 °F 86% 29.52 in 2.5 mi NE 12.7 mph - 0.02 in Snow Light Snow
2:36 PM 15.8 °F 1.4 °F 12.2 °F 86% 29.52 in 3.0 mi NE 13.8 mph - 0.02 in Snow Light Snow
2:53 PM 16.0 °F 2.3 °F 11.5 °F 82% 29.51 in 7.0 mi NNE 12.7 mph - 0.02 in Snow Light Snow
3:53 PM 18.0 °F 3.6 °F 11.7 °F 76% 29.52 in 6.0 mi NE 15.0 mph - 0.01 in Snow Light Snow
4:53 PM 17.1 °F 4.3 °F 10.9 °F 77% 29.52 in 9.0 mi NNE 11.5 mph - 0.00 in   Overcast
5:22 PM 17.6 °F 5.0 °F 10.4 °F 73% 29.52 in 4.0 mi NNE 11.5 mph - 0.00 in Snow Light Snow
5:46 PM 15.8 °F 2.7 °F 10.4 °F 79% 29.52 in 2.0 mi NE 11.5 mph - 0.00 in Snow Light Snow
5:53 PM 17.1 °F 5.0 °F 10.9 °F 77% 29.52 in 2.0 mi NNE 10.4 mph - 0.00 in Snow Light Snow
6:08 PM 17.6 °F 6.4 °F 12.2 °F 79% 29.52 in 3.0 mi NNE 9.2 mph - 0.00 in Snow Light Snow
6:19 PM 17.6 °F 4.3 °F 12.2 °F 79% 29.52 in 5.0 mi NE 12.7 mph - 0.00 in Snow Light Snow
6:53 PM 18.0 °F 6.1 °F 12.0 °F 78% 29.52 in 3.0 mi NE 10.4 mph - 0.01 in Snow Light Snow
7:53 PM 17.1 °F 3.6 °F 12.0 °F 81% 29.53 in 9.0 mi NE 12.7 mph - 0.01 in   Overcast
8:49 PM 17.6 °F 6.4 °F 12.2 °F 79% 29.53 in 2.5 mi NE 9.2 mph - 0.00 in Snow Light Snow
8:50 PM 17.1 °F 5.8 °F 12.0 °F 81% 29.54 in 2.5 mi NE 9.2 mph - 0.00 in Snow Light Snow
9:53 PM 17.1 °F 8.7 °F 12.9 °F 84% 29.55 in 2.0 mi NE 5.8 mph - 0.02 in Snow Light Snow
10:24 PM 19.4 °F 10.4 °F 15.8 °F 86% 29.55 in 2.5 mi ENE 6.9 mph - 0.01 in Snow Light Snow
10:39 PM 17.6 °F 10.7 °F 14.0 °F 86% 29.55 in 1.8 mi ENE 4.6 mph - 0.01 in Snow Light Snow
10:53 PM 18.0 °F 8.7 °F 15.1 °F 88% 29.56 in 1.8 mi ENE 6.9 mph - 0.01 in Snow Light Snow
11:15 PM 17.6 °F 9.3 °F 14.0 °F 86% 29.56 in 3.0 mi ENE 5.8 mph - 0.01 in Snow Light Snow
11:53 PM 18.0 °F 8.7 °F 14.0 °F 84% 29.57 in 3.0 mi ENE 6.9 mph - 0.01 in Snow Light Snow